| time (UTC) | temp F | wind direction | speed knots | gust knots | rain 1hr in | rain 24hr in | rain mn in | humidity % | barometer mb |
| 20260503215144 | 77 | 141 | 6.1 | 11.3 | 0.00 | 0.00 | 0.00 | 30 | 1000.0 |
| 20260503214644 | 77 | 141 | 6.1 | 11.3 | 0.00 | 0.00 | 0.00 | 30 | 1000.0 |
| 20260503214145 | 77 | 141 | 6.1 | 11.3 | 0.00 | 0.00 | 0.00 | 30 | 1000.0 |
| 20260503213645 | 77 | 141 | 6.1 | 11.3 | 0.00 | 0.00 | 0.00 | 30 | 1000.0 |
| 20260503213144 | 77 | 141 | 6.1 | 11.3 | 0.00 | 0.00 | 0.00 | 30 | 1000.0 |
| 20260503212645 | 77 | 141 | 6.1 | 11.3 | 0.00 | 0.00 | 0.00 | 30 | 1000.0 |
| 20260503212145 | 77 | 141 | 6.1 | 11.3 | 0.00 | 0.00 | 0.00 | 30 | 1000.0 |
| 20260503211645 | 77 | 141 | 6.1 | 11.3 | 0.00 | 0.00 | 0.00 | 30 | 1000.0 |
| 20260503211144 | 77 | 141 | 6.1 | 11.3 | 0.00 | 0.00 | 0.00 | 30 | 1000.0 |
| 20260503210646 | 77 | 141 | 6.1 | 11.3 | 0.00 | 0.00 | 0.00 | 30 | 1000.0 |
| 20260503210145 | 77 | 141 | 6.1 | 11.3 | 0.00 | 0.00 | 0.00 | 30 | 1000.0 |
| 20260503205644 | 77 | 141 | 6.1 | 11.3 | 0.00 | 0.00 | 0.00 | 30 | 1000.0 |
| 20260503205145 | 77 | 141 | 6.1 | 11.3 | 0.00 | 0.00 | 0.00 | 30 | 1000.0 |
| 20260503204644 | 77 | 141 | 6.1 | 11.3 | 0.00 | 0.00 | 0.00 | 30 | 1000.0 |
| 20260503204144 | 77 | 141 | 6.1 | 11.3 | 0.00 | 0.00 | 0.00 | 30 | 1000.0 |
| 20260503203645 | 77 | 141 | 6.1 | 11.3 | 0.00 | 0.00 | 0.00 | 30 | 1000.0 |
| 20260503203144 | 77 | 141 | 6.1 | 11.3 | 0.00 | 0.00 | 0.00 | 30 | 1000.0 |
| 20260503202644 | 77 | 141 | 6.1 | 11.3 | 0.00 | 0.00 | 0.00 | 30 | 1000.0 |
| 20260503202145 | 77 | 141 | 6.1 | 11.3 | 0.00 | 0.00 | 0.00 | 30 | 1000.0 |
| 20260503201644 | 77 | 141 | 6.1 | 11.3 | 0.00 | 0.00 | 0.00 | 30 | 1000.0 |
| 20260503201144 | 77 | 141 | 6.1 | 11.3 | 0.00 | 0.00 | 0.00 | 30 | 1000.0 |
| 20260503200644 | 77 | 141 | 6.1 | 11.3 | 0.00 | 0.00 | 0.00 | 30 | 1000.0 |
| 20260503200145 | 77 | 141 | 6.1 | 11.3 | 0.00 | 0.00 | 0.00 | 30 | 1000.0 |
| 20260503195644 | 77 | 141 | 6.1 | 11.3 | 0.00 | 0.00 | 0.00 | 30 | 1000.0 |
| 20260503195144 | 77 | 141 | 6.1 | 11.3 | 0.00 | 0.00 | 0.00 | 30 | 1000.0 |
| 20260503194644 | 77 | 141 | 6.1 | 11.3 | 0.00 | 0.00 | 0.00 | 30 | 1000.0 |
| 20260503194144 | 77 | 141 | 6.1 | 11.3 | 0.00 | 0.00 | 0.00 | 30 | 1000.0 |
| 20260503193644 | 77 | 141 | 6.1 | 11.3 | 0.00 | 0.00 | 0.00 | 30 | 1000.0 |
| 20260503193145 | 77 | 103 | 2.6 | 9.6 | 0.00 | 0.00 | 0.00 | 28 | 1000.0 |
| 20260503192644 | 77 | 204 | 7.0 | 19.1 | 0.00 | 0.00 | 0.00 | 30 | 1001.0 |
| 20260503192145 | 76 | 265 | 3.5 | 13.0 | 0.00 | 0.00 | 0.00 | 30 | 1001.0 |
| 20260503191644 | 76 | 197 | 1.7 | 12.2 | 0.00 | 0.00 | 0.00 | 29 | 1001.0 |
| 20260503191144 | 76 | 154 | 10.4 | 19.1 | 0.00 | 0.00 | 0.00 | 29 | 1001.0 |
| 20260503190645 | 76 | 127 | 6.1 | 13.9 | 0.00 | 0.00 | 0.00 | 29 | 1001.0 |
| 20260503190144 | 76 | 161 | 10.4 | 18.2 | 0.00 | 0.00 | 0.00 | 28 | 1001.0 |
| 20260503185644 | 75 | 171 | 13.0 | 23.5 | 0.00 | 0.00 | 0.00 | 27 | 1001.0 |
| 20260503185144 | 75 | 156 | 6.1 | 17.4 | 0.00 | 0.00 | 0.00 | 29 | 1002.0 |
| 20260503184644 | 75 | 136 | 12.2 | 14.8 | 0.00 | 0.00 | 0.00 | 31 | 1002.0 |
| 20260503184144 | 75 | 156 | 15.6 | 23.5 | 0.00 | 0.00 | 0.00 | 30 | 1002.0 |
| 20260503183645 | 74 | 190 | 10.4 | 19.1 | 0.00 | 0.00 | 0.00 | 32 | 1002.0 |
| 20260503183145 | 74 | 146 | 12.2 | 19.1 | 0.00 | 0.00 | 0.00 | 31 | 1003.0 |
| 20260503182644 | 74 | 171 | 16.5 | 20.9 | 0.00 | 0.00 | 0.00 | 30 | 1002.0 |
| 20260503182145 | 73 | 173 | 15.6 | 21.7 | 0.00 | 0.00 | 0.00 | 34 | 1003.0 |
| 20260503181645 | 73 | 224 | 12.2 | 17.4 | 0.00 | 0.00 | 0.00 | 36 | 1003.0 |
| 20260503181145 | 73 | 172 | 14.8 | 20.0 | 0.00 | 0.00 | 0.00 | 36 | 1003.0 |
| 20260503180645 | 73 | 207 | 12.2 | 17.4 | 0.00 | 0.00 | 0.00 | 36 | 1003.0 |
| 20260503180144 | 72 | 163 | 7.8 | 15.6 | 0.00 | 0.00 | 0.00 | 37 | 1004.0 |
| 20260503175644 | 72 | 176 | 14.8 | 20.0 | 0.00 | 0.00 | 0.00 | 37 | 1004.0 |
| 20260503175144 | 72 | 224 | 11.3 | 18.2 | 0.00 | 0.00 | 0.00 | 39 | 1004.0 |
| 20260503174644 | 71 | 214 | 10.4 | 18.2 | 0.00 | 0.00 | 0.00 | 40 | 1004.0 |
| 20260503174144 | 72 | 189 | 9.6 | 12.2 | 0.00 | 0.00 | 0.00 | 39 | 1004.0 |
| 20260503173644 | 72 | 188 | 11.3 | 13.0 | 0.00 | 0.00 | 0.00 | 40 | 1004.0 |
| 20260503173144 | 71 | 151 | 7.8 | 14.8 | 0.00 | 0.00 | 0.00 | 41 | 1004.0 |
| 20260503172644 | 72 | 201 | 6.1 | 15.6 | 0.00 | 0.00 | 0.00 | 40 | 1005.0 |
| 20260503172145 | 72 | 158 | 7.8 | 19.1 | 0.00 | 0.00 | 0.00 | 40 | 1005.0 |
| 20260503171645 | 71 | 129 | 13.0 | 17.4 | 0.00 | 0.00 | 0.00 | 41 | 1005.0 |
| 20260503171144 | 71 | 158 | 6.1 | 9.6 | 0.00 | 0.00 | 0.00 | 41 | 1005.0 |
| 20260503170645 | 70 | 152 | 7.0 | 12.2 | 0.00 | 0.00 | 0.00 | 42 | 1005.0 |
| 20260503170144 | 70 | 176 | 13.0 | 20.0 | 0.00 | 0.00 | 0.00 | 42 | 1006.0 |
| 20260503160145 | 64 | 122 | 5.2 | 5.2 | 0.00 | 0.00 | 0.00 | 50 | 1009.0 |
| 20260503150644 | 58 | 96 | 1.7 | 2.6 | 0.00 | 0.00 | 0.00 | 58 | 1012.0 |
| 20260503150145 | 57 | 111 | 0.9 | 2.6 | 0.00 | 0.00 | 0.00 | 59 | 1013.0 |
| 20260503140145 | 50 | 82 | 0.9 | 0.9 | 0.00 | 0.00 | 0.00 | 72 | 1016.0 |
| 20260503131145 | 44 | 189 | 1.7 | 1.7 | 0.00 | 0.00 | 0.00 | 85 | 1018.0 |
| 20260503130644 | 43 | 179 | 1.7 | 1.7 | 0.00 | 0.00 | 0.00 | 86 | 1018.0 |
| 20260503130145 | 42 | 176 | 1.7 | 2.6 | 0.00 | 0.00 | 0.00 | 85 | 1019.0 |
| 20260503120144 | 42 | 263 | 0.0 | 0.0 | 0.00 | 0.00 | 0.00 | 81 | 1019.0 |
| 20260503110712 | 43 | 177 | 1.7 | 1.7 | 0.00 | 0.00 | 0.00 | 75 | 1018.0 |
| 20260503110144 | 43 | 134 | 1.7 | 1.7 | 0.00 | 0.00 | 0.00 | 74 | 1017.0 |
| 20260503100145 | 46 | 36 | 0.0 | 0.0 | 0.00 | 0.00 | 0.00 | 73 | 1017.0 |
| 20260503090145 | 47 | 132 | 0.0 | 0.0 | 0.00 | 0.00 | 0.00 | 71 | 1016.0 |
| 20260503081144 | 49 | 128 | 0.0 | 1.7 | 0.00 | 0.00 | 0.00 | 65 | 1015.0 |
| 20260503080645 | 50 | 113 | 0.9 | 1.7 | 0.00 | 0.00 | 0.00 | 65 | 1015.0 |
| 20260503080144 | 50 | 118 | 1.7 | 1.7 | 0.00 | 0.00 | 0.00 | 65 | 1015.0 |
| 20260503072645 | 52 | 117 | 4.3 | 6.1 | 0.00 | 0.00 | 0.00 | 65 | 1014.0 |
| 20260503072144 | 52 | 112 | 3.5 | 5.2 | 0.00 | 0.00 | 0.00 | 65 | 1014.0 |
| 20260503071645 | 53 | 118 | 2.6 | 5.2 | 0.00 | 0.00 | 0.00 | 65 | 1014.0 |
| 20260503071144 | 53 | 115 | 3.5 | 6.1 | 0.00 | 0.00 | 0.00 | 65 | 1014.0 |
| 20260503070644 | 53 | 114 | 4.3 | 6.1 | 0.00 | 0.00 | 0.00 | 65 | 1014.0 |
| 20260503070145 | 53 | 121 | 3.5 | 6.1 | 0.00 | 0.00 | 0.00 | 65 | 1014.0 |
| 20260503060144 | 54 | 113 | 4.3 | 6.1 | 0.00 | 0.00 | 0.00 | 66 | 1013.0 |
| 20260503054645 | 55 | 102 | 3.5 | 5.2 | 0.00 | 0.00 | 0.01 | 65 | 1013.0 |
| 20260503054144 | 55 | 94 | 3.5 | 6.1 | 0.00 | 0.00 | 0.01 | 65 | 1013.0 |
| 20260503053644 | 55 | 90 | 3.5 | 6.1 | 0.00 | 0.00 | 0.01 | 65 | 1012.0 |
| 20260503053145 | 55 | 88 | 4.3 | 7.8 | 0.00 | 0.00 | 0.01 | 65 | 1013.0 |
| 20260503052159 | 56 | 86 | 6.1 | 7.8 | 0.00 | 0.00 | 0.01 | 65 | 1012.0 |
| 20260503051644 | 56 | 80 | 5.2 | 6.1 | 0.00 | 0.00 | 0.01 | 65 | 1012.0 |
| 20260503051145 | 56 | 90 | 4.3 | 5.2 | 0.00 | 0.00 | 0.01 | 65 | 1012.0 |
| 20260503050644 | 57 | 84 | 3.5 | 5.2 | 0.00 | 0.00 | 0.01 | 64 | 1012.0 |
| 20260503050144 | 57 | 77 | 4.3 | 7.8 | 0.00 | 0.00 | 0.01 | 64 | 1012.0 |
| 20260503045645 | 57 | 92 | 5.2 | 7.0 | 0.00 | 0.00 | 0.01 | 64 | 1011.0 |
| 20260503045144 | 58 | 73 | 6.1 | 8.7 | 0.00 | 0.00 | 0.01 | 64 | 1011.0 |
| 20260503044644 | 58 | 64 | 7.0 | 8.7 | 0.00 | 0.00 | 0.01 | 64 | 1011.0 |
| 20260503044145 | 59 | 57 | 7.0 | 9.6 | 0.00 | 0.00 | 0.01 | 64 | 1011.0 |
| 20260503043644 | 59 | 58 | 7.0 | 8.7 | 0.00 | 0.00 | 0.01 | 63 | 1011.0 |
| 20260503043144 | 59 | 59 | 7.8 | 8.7 | 0.00 | 0.00 | 0.01 | 62 | 1010.0 |
| 20260503042644 | 59 | 49 | 4.3 | 6.1 | 0.00 | 0.00 | 0.01 | 61 | 1010.0 |
| 20260503042144 | 59 | 42 | 4.3 | 5.2 | 0.00 | 0.00 | 0.01 | 60 | 1010.0 |
| 20260503041644 | 59 | 31 | 4.3 | 6.1 | 0.00 | 0.00 | 0.01 | 59 | 1010.0 |
| 20260503041144 | 59 | 23 | 3.5 | 5.2 | 0.00 | 0.00 | 0.01 | 59 | 1010.0 |
| 20260503040645 | 59 | 20 | 2.6 | 6.1 | 0.00 | 0.00 | 0.01 | 59 | 1010.0 |
| 20260503040144 | 60 | 40 | 5.2 | 6.1 | 0.00 | 0.00 | 0.01 | 59 | 1010.0 |
| 20260503035644 | 60 | 35 | 4.3 | 6.1 | 0.00 | 0.00 | 0.01 | 59 | 1010.0 |
| 20260503035144 | 59 | 27 | 4.3 | 6.1 | 0.00 | 0.00 | 0.01 | 59 | 1010.0 |
| 20260503034645 | 60 | 18 | 3.5 | 5.2 | 0.00 | 0.00 | 0.01 | 59 | 1010.0 |
| 20260503034144 | 60 | 32 | 3.5 | 6.1 | 0.00 | 0.00 | 0.01 | 59 | 1010.0 |
| 20260503033644 | 60 | 34 | 4.3 | 6.1 | 0.00 | 0.00 | 0.01 | 59 | 1010.0 |
| 20260503033144 | 60 | 32 | 6.1 | 6.1 | 0.00 | 0.00 | 0.01 | 59 | 1010.0 |
| 20260503032644 | 60 | 20 | 6.1 | 7.8 | 0.00 | 0.00 | 0.01 | 58 | 1009.0 |
| 20260503032146 | 60 | 23 | 7.0 | 8.7 | 0.00 | 0.00 | 0.01 | 58 | 1009.0 |
| 20260503031645 | 60 | 12 | 7.0 | 8.7 | 0.00 | 0.00 | 0.01 | 57 | 1009.0 |
| 20260503031144 | 61 | 20 | 6.1 | 9.6 | 0.00 | 0.00 | 0.01 | 57 | 1009.0 |
| 20260503030644 | 61 | 43 | 7.8 | 11.3 | 0.02 | 0.00 | 0.01 | 57 | 1008.0 |
| 20260503030144 | 62 | 36 | 7.0 | 12.2 | 0.05 | 0.00 | 0.01 | 57 | 1008.0 |
| 20260503025644 | 62 | 305 | 3.5 | 12.2 | 0.02 | 0.00 | 0.00 | 58 | 1008.0 |
| 20260503025144 | 62 | 6 | 8.7 | 12.2 | 0.00 | 0.00 | 0.00 | 50 | 1008.0 |
| 20260503024645 | 63 | 20 | 7.8 | 11.3 | 0.00 | 0.00 | 0.00 | 49 | 1007.0 |
| 20260503024144 | 63 | 34 | 7.8 | 9.6 | 0.00 | 0.00 | 0.00 | 48 | 1007.0 |
| 20260503023645 | 63 | 21 | 6.1 | 8.7 | 0.00 | 0.00 | 0.00 | 47 | 1007.0 |
| 20260503023144 | 63 | 38 | 9.6 | 12.2 | 0.00 | 0.00 | 0.00 | 47 | 1007.0 |
| 20260503022644 | 64 | 40 | 8.7 | 13.0 | 0.00 | 0.00 | 0.00 | 46 | 1006.0 |
| 20260503022144 | 64 | 59 | 9.6 | 13.9 | 0.00 | 0.00 | 0.00 | 47 | 1006.0 |
| 20260503021645 | 64 | 50 | 10.4 | 13.9 | 0.00 | 0.00 | 0.00 | 47 | 1006.0 |
| 20260503021144 | 64 | 49 | 10.4 | 13.9 | 0.00 | 0.00 | 0.00 | 46 | 1006.0 |
| 20260503020645 | 64 | 57 | 11.3 | 18.2 | 0.00 | 0.00 | 0.00 | 46 | 1006.0 |
| 20260503020144 | 64 | 56 | 11.3 | 15.6 | 0.00 | 0.00 | 0.00 | 46 | 1005.0 |
| 20260503015645 | 64 | 56 | 10.4 | 15.6 | 0.00 | 0.00 | 0.00 | 45 | 1005.0 |
| 20260503015144 | 64 | 53 | 12.2 | 14.8 | 0.00 | 0.00 | 0.00 | 46 | 1006.0 |
| 20260503014644 | 65 | 58 | 8.7 | 11.3 | 0.00 | 0.00 | 0.00 | 45 | 1005.0 |
| 20260503014144 | 65 | 47 | 7.0 | 9.6 | 0.00 | 0.00 | 0.00 | 45 | 1005.0 |
| 20260503013644 | 65 | 71 | 9.6 | 17.4 | 0.00 | 0.00 | 0.00 | 44 | 1005.0 |
| 20260503013144 | 65 | 80 | 11.3 | 14.8 | 0.00 | 0.00 | 0.00 | 44 | 1004.0 |
| 20260503012644 | 66 | 72 | 12.2 | 19.1 | 0.00 | 0.00 | 0.00 | 43 | 1004.0 |
| 20260503012144 | 66 | 76 | 16.5 | 20.0 | 0.00 | 0.00 | 0.00 | 43 | 1004.0 |
| 20260503011646 | 66 | 76 | 13.0 | 18.2 | 0.00 | 0.00 | 0.00 | 42 | 1004.0 |
| 20260503011145 | 67 | 81 | 12.2 | 17.4 | 0.00 | 0.00 | 0.00 | 41 | 1003.0 |
| 20260503010644 | 67 | 80 | 9.6 | 13.9 | 0.00 | 0.00 | 0.00 | 41 | 1004.0 |
| 20260503010144 | 67 | 77 | 11.3 | 17.4 | 0.00 | 0.00 | 0.00 | 40 | 1003.0 |
| 20260503005644 | 68 | 80 | 8.7 | 17.4 | 0.00 | 0.00 | 0.00 | 40 | 1003.0 |
| 20260503005144 | 68 | 80 | 9.6 | 14.8 | 0.00 | 0.00 | 0.00 | 39 | 1003.0 |
| 20260503004644 | 68 | 87 | 8.7 | 13.9 | 0.00 | 0.00 | 0.00 | 39 | 1003.0 |
| 20260503004144 | 68 | 74 | 11.3 | 13.9 | 0.00 | 0.00 | 0.00 | 40 | 1003.0 |
| 20260503003646 | 69 | 67 | 13.0 | 15.6 | 0.00 | 0.00 | 0.00 | 39 | 1002.0 |
| 20260503003144 | 69 | 65 | 10.4 | 17.4 | 0.00 | 0.00 | 0.00 | 38 | 1002.0 |
| 20260503002645 | 69 | 62 | 12.2 | 15.6 | 0.00 | 0.00 | 0.00 | 38 | 1002.0 |
| 20260503002144 | 70 | 73 | 9.6 | 15.6 | 0.00 | 0.00 | 0.00 | 37 | 1002.0 |
| 20260503001644 | 71 | 72 | 9.6 | 15.6 | 0.00 | 0.00 | 0.00 | 36 | 1001.0 |
| 20260503001144 | 71 | 84 | 13.0 | 17.4 | 0.00 | 0.00 | 0.00 | 35 | 1001.0 |
| 20260503000645 | 71 | 82 | 13.0 | 14.8 | 0.00 | 0.00 | 0.00 | 35 | 1001.0 |
| 20260503000144 | 71 | 102 | 8.7 | 14.8 | 0.00 | 0.00 | 0.00 | 36 | 1001.0 |
| 20260502235644 | 70 | 62 | 9.6 | 15.6 | 0.00 | 0.00 | 0.00 | 37 | 1001.0 |
| 20260502234656 | 70 | 63 | 10.4 | 14.8 | 0.00 | 0.00 | 0.00 | 37 | 1002.0 |
| 20260502234144 | 70 | 65 | 10.4 | 13.0 | 0.00 | 0.00 | 0.00 | 37 | 1001.0 |
| 20260502233644 | 70 | 67 | 13.0 | 14.8 | 0.00 | 0.00 | 0.00 | 37 | 1002.0 |
| 20260502233144 | 70 | 77 | 17.4 | 19.1 | 0.00 | 0.00 | 0.00 | 37 | 1001.0 |
| 20260502232644 | 71 | 76 | 15.6 | 20.9 | 0.00 | 0.00 | 0.00 | 37 | 1001.0 |
| 20260502232144 | 71 | 68 | 14.8 | 20.9 | 0.00 | 0.00 | 0.00 | 37 | 1001.0 |
| 20260502231644 | 72 | 52 | 12.2 | 20.9 | 0.00 | 0.00 | 0.00 | 36 | 1001.0 |
| 20260502231144 | 71 | 77 | 13.9 | 18.2 | 0.00 | 0.00 | 0.00 | 35 | 1001.0 |
| 20260502230644 | 71 | 69 | 15.6 | 20.0 | 0.00 | 0.00 | 0.00 | 36 | 1001.0 |
| 20260502230144 | 71 | 58 | 10.4 | 17.4 | 0.00 | 0.00 | 0.00 | 36 | 1001.0 |
| 20260502225644 | 71 | 62 | 13.9 | 19.1 | 0.00 | 0.00 | 0.00 | 36 | 1001.0 |
| 20260502225144 | 72 | 54 | 15.6 | 23.5 | 0.00 | 0.00 | 0.00 | 35 | 1001.0 |
| 20260502224644 | 73 | 37 | 10.4 | 19.1 | 0.00 | 0.00 | 0.00 | 33 | 1000.0 |
| 20260502224145 | 73 | 62 | 17.4 | 22.6 | 0.00 | 0.00 | 0.00 | 33 | 1000.0 |
| 20260502223645 | 74 | 64 | 14.8 | 15.6 | 0.00 | 0.00 | 0.00 | 33 | 1000.0 |
| 20260502223145 | 74 | 69 | 18.2 | 21.7 | 0.00 | 0.00 | 0.00 | 33 | 1000.0 |
| 20260502222644 | 73 | 75 | 11.3 | 19.1 | 0.00 | 0.00 | 0.00 | 33 | 1000.0 |
| 20260502222145 | 73 | 48 | 13.9 | 20.9 | 0.00 | 0.00 | 0.00 | 33 | 1000.0 |
| 20260502221644 | 73 | 36 | 13.9 | 26.1 | 0.00 | 0.00 | 0.00 | 33 | 1000.0 |
| 20260502221144 | 73 | 50 | 13.9 | 20.0 | 0.00 | 0.00 | 0.00 | 32 | 1000.0 |
| 20260502220644 | 74 | 22 | 4.3 | 6.1 | 0.00 | 0.00 | 0.00 | 26 | 1000.0 |
| 20260502220145 | 74 | 52 | 0.9 | 4.3 | 0.00 | 0.00 | 0.00 | 27 | 1000.0 |
| 20260502215645 | 75 | 356 | 0.0 | 2.6 | 0.00 | 0.00 | 0.00 | 27 | 1000.0 |